Tracking 27380 objects as of 5-Jun-2023
HD Live streaming from Space Station
objects crossing your sky now

FENGYUN 1C DEB

Track FENGYUN 1C DEB now!
10-day predictions


NORAD ID: 30661
Int'l Code: 1999-025APT
Perigee: 726.7 km
Apogee: 939.7 km
Inclination: 99.4 °
Period: 101.4 minutes
Semi major axis: 7204 km
RCS: 0.0103 m2 (small)
Launch date: May 10, 1999
Source: People's Republic of China (PRC)
Launch site: Taiyaun Space Center, China (TSC)

Note: This is SATELLITE DEBRIS
Your satellite tracking list
Your tracking list is empty




NASA's NSSDC Master Catalog

Two Line Element Set (TLE):
1 30661U 99025APT 23156.00229956  .00000419  00000-0  19767-3 0  9998
2 30661  99.3935 258.6070 0147838 124.5351 236.9881 14.19783775848162
Source of the keplerian elements: AFSPC